{"data":{"norad_id":63706,"epoch":"2026-05-24T15:21:08.380512Z","epoch_age_seconds":116244,"freshness":"FRESH","line1":"1 63706U 25087K   26144.63968033  .00022811  00000+0  78061-3 0  9997","line2":"2 63706  53.1586 227.0765 0001165  83.1026 277.0107 15.30171175 60825","mean_motion":15.30171175,"eccentricity":0.0001165,"inclination_deg":53.1586,"raan_deg":227.0765,"arg_perigee_deg":83.1026,"mean_anomaly_deg":277.0107,"bstar":0.00078061,"rev_number":6082,"period_min":94.107118440523,"perigee_km":474.5027114817,"apogee_km":476.09956256762,"semimajor_km":6853.4381370247,"source":"CELESTRAK","updated_at":"2026-05-25T13:38:20.097890Z"}}